Theta_e
342 340 343 345 344 342 342 341 340 340 337 330 329 327 327 324 323 324 322 322 322 321
347 346 347 349 346 341 340 341 338 335 328 329 327 326 325 322 322 321 320 320 320 318
346 346 346 346 341 338 336 334 333 329 326 325 325 323 322 320 318 319 316 316 315 314
344 347 341 339 337 336 333 332 328 326 322 322 321 320 319 316 315 314 313 312 311 310
343 345 343 337 334 331 328 329 325 321 318 318 318 318 315 313 311 311 308 308 309 308
338 339 336 332 329 328 325 323 321 317 315 314 313 311 311 309 307 307 307 308 307 306
336 334 331 329 326 324 322 320 317 316 314 311 308 306 305 304 305 305 305 305 305 304
334 330 328 325 323 321 319 319 318 314 311 308 306 304 303 304 304 304 303 305 305 305
329 326 324 322 321 320 318 318 317 313 309 307 304 300 301 303 302 301 301 300 300 303
325 322 321 320 319 317 318 319 313 312 308 302 299 297 297 300 301 301 300 300 300 299
323 319 318 318 316 316 316 315 313 311 305 298 297 296 296 298 302 300 300 300 300 300
321 318 318 316 316 316 315 311 309 307 301 295 296 294 295 297 300 298 299 299 299 299
319 317 315 314 314 313 311 307 308 303 297 297 295 294 295 298 299 298 297 298 297 294
316 314 314 312 310 308 306 303 299 296 298 296 297 296 294 296 299 297 296 295 295 294
Wind_Speed
22 13 12 12 11 10 10 11 12 12 13 11 12 12 12 10 9 11 9 10 9 8
19 15 13 15 14 11 10 10 13 12 12 12 13 14 13 11 10 11 9 11 11 8
19 18 14 14 15 15 12 13 15 14 13 12 14 14 14 11 9 13 9 9 11 9
13 17 17 14 14 14 15 16 17 16 12 13 15 15 13 11 13 15 12 11 11 10
19 13 16 16 15 15 15 16 16 15 12 13 14 14 15 13 13 13 13 11 11 10
15 13 14 16 18 16 17 17 16 15 15 9 13 11 14 13 14 13 12 11 11 10
15 14 14 17 20 19 19 20 18 16 17 15 10 8 16 12 14 14 14 12 12 11
14 18 15 18 20 20 20 20 22 24 17 18 11 7 11 13 13 15 15 13 13 12
18 18 16 19 21 21 19 19 20 18 19 17 11 13 15 15 15 14 15 13 12 10
20 20 20 19 21 23 22 20 19 19 21 18 14 17 17 18 14 13 13 12 10 9
20 20 21 19 20 20 20 20 18 18 18 17 16 18 18 20 14 14 15 13 12 11
23 22 22 19 19 18 19 18 17 18 19 17 18 21 16 17 14 16 15 12 12 10
23 23 22 22 20 16 18 19 17 18 14 24 18 16 15 15 13 16 12 13 12 13
22 23 22 21 21 20 19 19 18 18 14 18 16 13 13 14 14 13 12 10 9 8
Wind_Direction
180 194 181 175 168 165 170 161 164 164 143 137 139 130 118 109 112 109 103 105 91 89
173 179 177 169 160 155 154 150 154 140 129 154 137 124 120 112 118 105 106 92 89 84
172 167 167 161 154 156 143 144 145 145 141 143 129 120 106 113 110 103 95 91 89 82
201 165 154 156 154 151 143 146 145 144 135 134 126 115 106 106 111 100 99 94 94 88
186 167 167 149 153 143 136 140 137 125 118 125 115 118 115 118 103 107 102 100 94 87
154 175 169 147 142 140 134 126 118 108 99 96 94 108 105 108 110 101 96 93 89 85
157 167 158 145 137 136 134 125 116 111 113 85 90 105 97 112 102 101 93 89 85 80
154 134 147 142 133 134 132 131 131 133 128 121 112 104 112 109 103 105 100 93 88 78
139 138 138 139 138 132 131 138 131 123 122 114 113 131 119 115 112 106 102 99 93 96
138 140 143 141 135 134 138 137 130 133 127 114 121 123 120 113 107 105 99 101 100 94
142 139 131 145 137 138 135 133 130 127 123 125 119 119 112 106 105 103 97 94 93 86
142 141 139 143 145 132 131 124 125 124 123 122 117 122 125 115 114 105 97 91 81 89
140 139 141 139 134 127 121 119 119 117 124 123 121 126 128 127 118 114 108 93 86 61
135 135 134 131 124 124 121 118 116 117 126 111 123 121 116 116 122 120 111 109 99 89